Location: Dziadowski
(50.3833°N, 20.0333°E)
Time: 21:38:55
(UTC+00:00)

SJ 16-02 - Pass Details

Date: 18 January 2026
Orbit: 582 x 594 km, 75.0° (Epoch: 17 February)

Event Time Altitude Azimuth Distance (km) Brightness Sun altitude
Rises 05:07:00 0° 189° (S) 2,792 4.8 -13.1°
Reaches altitude 10° 05:09:13 10° 185° (S) 1,897 4.0 -12.8°
Maximum altitude 05:13:21 56° 107° (ESE) 702 2.0 -12.1°
Drops below altitude 10° 05:17:31 10° 30° (NNE) 1,915 4.0 -11.5°
Sets 05:19:47 0° 26° (NNE) 2,821 4.8 -11.2°
